TimeMST,TemperatureF,Dew PointF,Humidity,Sea Level PressureIn,VisibilityMPH,Wind Direction,Wind SpeedMPH,Gust SpeedMPH,PrecipitationIn,Events,Conditions,WindDirDegrees,DateUTC
12:53 AM,30.0,15.1,54,30.31,10.0,Calm,Calm,-,N/A,,Clear,0,2013-03-02 07:53:00
1:53 AM,30.0,16.0,56,30.32,10.0,Calm,Calm,-,N/A,,Clear,0,2013-03-02 08:53:00
2:53 AM,27.0,16.0,63,30.32,10.0,NE,4.6,-,N/A,,Clear,40,2013-03-02 09:53:00
3:53 AM,24.1,15.1,69,30.33,10.0,NNE,3.5,-,N/A,,Clear,20,2013-03-02 10:53:00
4:53 AM,21.9,14.0,72,30.35,10.0,NNE,5.8,-,N/A,,Clear,30,2013-03-02 11:53:00
5:53 AM,28.0,16.0,61,30.35,10.0,ENE,3.5,-,N/A,,Clear,70,2013-03-02 12:53:00
6:53 AM,23.0,15.1,72,30.41,10.0,Calm,Calm,-,N/A,,Clear,0,2013-03-02 13:53:00
7:53 AM,32.0,18.0,56,30.40,10.0,NNE,4.6,-,N/A,,Clear,20,2013-03-02 14:53:00
8:53 AM,41.0,19.0,41,30.38,10.0,North,8.1,-,N/A,,Clear,360,2013-03-02 15:53:00
9:53 AM,45.0,18.0,34,30.35,10.0,North,12.7,-,N/A,,Clear,350,2013-03-02 16:53:00
10:53 AM,48.9,18.0,29,30.33,10.0,NNE,12.7,16.1,N/A,,Clear,20,2013-03-02 17:53:00
11:53 AM,52.0,18.0,26,30.32,10.0,Variable,6.9,-,N/A,,Clear,0,2013-03-02 18:53:00
12:53 PM,55.0,18.0,23,30.24,10.0,WSW,11.5,-,N/A,,Clear,250,2013-03-02 19:53:00
1:53 PM,55.0,17.1,23,30.22,10.0,West,5.8,-,N/A,,Clear,280,2013-03-02 20:53:00
2:53 PM,55.9,17.1,22,30.21,10.0,SW,6.9,-,N/A,,Clear,220,2013-03-02 21:53:00
3:53 PM,57.9,17.1,20,30.19,10.0,WSW,4.6,-,N/A,,Clear,250,2013-03-02 22:53:00
4:53 PM,59.0,17.1,20,30.18,10.0,Calm,Calm,-,N/A,,Clear,0,2013-03-02 23:53:00
6:53 PM,48.0,17.1,29,30.20,10.0,East,8.1,-,N/A,,Clear,80,2013-03-03 01:53:00
7:53 PM,42.1,17.1,37,30.19,10.0,NNW,3.5,-,N/A,,Clear,340,2013-03-03 02:53:00
8:53 PM,39.0,19.0,45,30.18,10.0,NNW,4.6,-,N/A,,Clear,340,2013-03-03 03:53:00
9:53 PM,39.9,19.0,43,30.16,10.0,ENE,8.1,-,N/A,,Clear,60,2013-03-03 04:53:00
10:53 PM,39.9,19.0,43,30.14,10.0,Calm,Calm,-,N/A,,Clear,0,2013-03-03 05:53:00
11:53 PM,34.0,17.1,50,30.14,10.0,North,3.5,-,N/A,,Clear,350,2013-03-03 06:53:00